カタログに戻る

RUBIN 4/SL-8

運用中アマチュア無線SSO
NORAD 27940·PAYLOAD·🇩🇪 Germany

打ち上げ Sep 27, 2003 から Plesetsk Cosmodrome

Loading…

次のパス (今後24時間)

TLE

最新Source: Space-Track

元期: Sep 14, 2026, 10:40 UTC

1 27940U 03042B   26257.44511949  .00000280  00000-0  55949-4 0  9996
2 27940  98.3921  77.8447 0014236  77.1923 283.0871 14.69562563227678

AllMySatでRUBIN 4/SL-8をリアルタイム追跡

Download on the App Store